Time,TemperatureF,DewpointF,PressureIn,WindDirection,WindDirectionDegrees,WindSpeedMPH,WindSpeedGustMPH,Humidity,HourlyPrecipIn,Conditions,Clouds,dailyrainin,SoftwareType,DateUTC
2013-01-26 00:03:00,11.0,8.0,-100.00,WSW,240,0.0,1.0,85,-99.99,,,-99.99,,2013-01-26 05:03:00,
2013-01-26 00:12:00,10.0,7.0,-100.00,WNW,290,0.0,2.0,85,-99.99,,,-99.99,,2013-01-26 05:12:00,
2013-01-26 00:23:00,10.0,7.0,-100.00,WNW,290,0.0,2.0,85,-99.99,,,-99.99,,2013-01-26 05:23:00,
2013-01-26 00:33:00,10.0,7.0,-100.00,WNW,300,1.0,5.0,85,-99.99,,,-99.99,,2013-01-26 05:33:00,
2013-01-26 00:42:00,11.0,8.0,-100.00,WNW,295,2.0,5.0,85,-99.99,,,-99.99,,2013-01-26 05:42:00,
2013-01-26 00:52:00,11.0,8.0,-100.00,WNW,295,2.0,5.0,85,-99.99,,,-99.99,,2013-01-26 05:52:00,
2013-01-26 01:12:00,12.0,8.0,-100.00,WNW,295,2.0,6.0,85,-99.99,,,-99.99,,2013-01-26 06:12:00,
2013-01-26 01:21:00,12.0,8.0,-100.00,WNW,295,2.0,6.0,85,-99.99,,,-99.99,,2013-01-26 06:21:00,
2013-01-26 01:32:00,12.0,9.0,-100.00,WNW,300,4.0,9.0,85,-99.99,,,-99.99,,2013-01-26 06:32:00,
2013-01-26 01:42:00,12.0,9.0,-100.00,WNW,300,4.0,9.0,85,-99.99,,,-99.99,,2013-01-26 06:42:00,
2013-01-26 02:02:00,12.0,9.0,-100.00,WNW,295,4.0,8.0,85,-99.99,,,-99.99,,2013-01-26 07:02:00,
2013-01-26 02:12:00,12.0,8.0,-100.00,NW,310,4.0,9.0,85,-99.99,,,-99.99,,2013-01-26 07:12:00,
2013-01-26 02:22:00,12.0,8.0,-100.00,NW,310,4.0,9.0,85,-99.99,,,-99.99,,2013-01-26 07:22:00,
2013-01-26 02:33:00,11.0,8.0,-100.00,WNW,300,2.0,8.0,85,-99.99,,,-99.99,,2013-01-26 07:33:00,
2013-01-26 02:42:00,11.0,8.0,-100.00,WNW,295,4.0,8.0,85,-99.99,,,-99.99,,2013-01-26 07:42:00,
2013-01-26 02:51:00,11.0,8.0,-100.00,WNW,295,4.0,8.0,85,-99.99,,,-99.99,,2013-01-26 07:51:00,
2013-01-26 03:02:00,11.0,8.0,-100.00,WNW,300,3.0,7.0,85,-99.99,,,-99.99,,2013-01-26 08:02:00,
2013-01-26 03:11:00,11.0,7.0,-100.00,WNW,295,2.0,6.0,85,-99.99,,,-99.99,,2013-01-26 08:11:00,
2013-01-26 03:22:00,11.0,7.0,-100.00,WNW,295,2.0,6.0,85,-99.99,,,-99.99,,2013-01-26 08:22:00,
2013-01-26 03:32:00,11.0,7.0,-100.00,NW,305,2.0,8.0,85,-99.99,,,-99.99,,2013-01-26 08:32:00,
2013-01-26 03:42:00,11.0,7.0,-100.00,NW,305,2.0,5.0,85,-99.99,,,-99.99,,2013-01-26 08:42:00,
2013-01-26 03:53:00,10.0,7.0,-100.00,NW,305,4.0,9.0,85,-99.99,,,-99.99,,2013-01-26 08:53:00,
2013-01-26 04:02:00,10.0,7.0,-100.00,NW,305,4.0,9.0,85,-99.99,,,-99.99,,2013-01-26 09:02:00,
2013-01-26 04:11:00,10.0,7.0,-100.00,WNW,300,4.0,10.0,85,-99.99,,,-99.99,,2013-01-26 09:11:00,
2013-01-26 04:22:00,10.0,7.0,-100.00,WNW,300,4.0,10.0,85,-99.99,,,-99.99,,2013-01-26 09:22:00,
2013-01-26 04:32:00,10.0,7.0,-100.00,NW,305,3.0,7.0,85,-99.99,,,-99.99,,2013-01-26 09:32:00,
2013-01-26 04:42:00,10.0,7.0,-100.00,NW,325,4.0,8.0,85,-99.99,,,-99.99,,2013-01-26 09:42:00,
2013-01-26 04:52:00,10.0,7.0,-100.00,NW,325,4.0,8.0,85,-99.99,,,-99.99,,2013-01-26 09:52:00,
2013-01-26 05:01:00,10.0,6.0,-100.00,NW,320,4.0,7.0,84,-99.99,,,-99.99,,2013-01-26 10:01:00,
2013-01-26 05:12:00,10.0,6.0,-100.00,NW,305,4.0,8.0,84,-99.99,,,-99.99,,2013-01-26 10:12:00,
2013-01-26 05:21:00,10.0,6.0,-100.00,NW,305,4.0,8.0,84,-99.99,,,-99.99,,2013-01-26 10:21:00,
2013-01-26 05:32:00,10.0,6.0,-100.00,WNW,285,4.0,7.0,84,-99.99,,,-99.99,,2013-01-26 10:32:00,
2013-01-26 05:42:00,10.0,6.0,-100.00,NW,310,3.0,6.0,83,-99.99,,,-99.99,,2013-01-26 10:42:00,
2013-01-26 05:52:00,10.0,6.0,-100.00,NW,310,3.0,6.0,83,-99.99,,,-99.99,,2013-01-26 10:52:00,
2013-01-26 06:12:00,10.0,6.0,-100.00,WNW,290,3.0,6.0,83,-99.99,,,-99.99,,2013-01-26 11:12:00,
2013-01-26 06:22:00,10.0,6.0,-100.00,WNW,290,3.0,6.0,83,-99.99,,,-99.99,,2013-01-26 11:22:00,
2013-01-26 06:32:00,10.0,6.0,-100.00,WNW,295,1.0,7.0,83,-99.99,,,-99.99,,2013-01-26 11:32:00,
2013-01-26 06:42:00,10.0,6.0,-100.00,WNW,295,2.0,7.0,82,-99.99,,,-99.99,,2013-01-26 11:42:00,
2013-01-26 06:52:00,10.0,6.0,-100.00,WNW,295,2.0,7.0,82,-99.99,,,-99.99,,2013-01-26 11:52:00,
2013-01-26 07:02:00,10.0,5.0,-100.00,WNW,285,2.0,6.0,82,-99.99,,,-99.99,,2013-01-26 12:02:00,
2013-01-26 07:12:00,10.0,6.0,-100.00,NNW,330,4.0,9.0,82,-99.99,,,-99.99,,2013-01-26 12:12:00,
2013-01-26 07:23:00,10.0,6.0,-100.00,NNW,330,4.0,9.0,82,-99.99,,,-99.99,,2013-01-26 12:23:00,
2013-01-26 07:33:00,10.0,6.0,-100.00,NW,310,3.0,8.0,81,-99.99,,,-99.99,,2013-01-26 12:33:00,
2013-01-26 07:42:00,10.0,5.0,-100.00,WNW,285,3.0,7.0,80,-99.99,,,-99.99,,2013-01-26 12:42:00,
2013-01-26 07:52:00,10.0,5.0,-100.00,WNW,285,3.0,7.0,80,-99.99,,,-99.99,,2013-01-26 12:52:00,
2013-01-26 08:04:00,10.0,5.0,-100.00,NW,310,3.0,8.0,80,-99.99,,,-99.99,,2013-01-26 13:04:00,
2013-01-26 08:12:00,11.0,6.0,-100.00,NW,305,4.0,7.0,80,-99.99,,,-99.99,,2013-01-26 13:12:00,
2013-01-26 08:22:00,11.0,6.0,-100.00,NW,305,4.0,7.0,80,-99.99,,,-99.99,,2013-01-26 13:22:00,
2013-01-26 08:33:00,11.0,6.0,-100.00,NW,325,3.0,6.0,79,-99.99,,,-99.99,,2013-01-26 13:33:00,
2013-01-26 08:42:00,11.0,6.0,-100.00,NW,305,5.0,9.0,78,-99.99,,,-99.99,,2013-01-26 13:42:00,
2013-01-26 08:52:00,11.0,6.0,-100.00,NW,305,5.0,9.0,78,-99.99,,,-99.99,,2013-01-26 13:52:00,
2013-01-26 09:03:00,12.0,6.0,-100.00,WNW,295,4.0,10.0,77,-99.99,,,-99.99,,2013-01-26 14:03:00,
2013-01-26 09:12:00,12.0,6.0,-100.00,NW,310,6.0,10.0,75,-99.99,,,-99.99,,2013-01-26 14:12:00,
2013-01-26 09:22:00,12.0,6.0,-100.00,NW,310,6.0,10.0,75,-99.99,,,-99.99,,2013-01-26 14:22:00,
2013-01-26 09:32:00,13.0,6.0,-100.00,NW,305,5.0,13.0,74,-99.99,,,-99.99,,2013-01-26 14:32:00,
2013-01-26 09:43:00,13.0,6.0,-100.00,WNW,300,6.0,9.0,73,-99.99,,,-99.99,,2013-01-26 14:43:00,
2013-01-26 09:52:00,13.0,6.0,-100.00,WNW,300,6.0,9.0,73,-99.99,,,-99.99,,2013-01-26 14:52:00,
2013-01-26 10:03:00,14.0,6.0,-100.00,WNW,295,4.0,15.0,72,-99.99,,,-99.99,,2013-01-26 15:03:00,
2013-01-26 10:12:00,14.0,6.0,-100.00,NW,315,6.0,18.0,70,-99.99,,,-99.99,,2013-01-26 15:12:00,
2013-01-26 10:22:00,14.0,6.0,-100.00,NW,315,6.0,18.0,70,-99.99,,,-99.99,,2013-01-26 15:22:00,
2013-01-26 10:33:00,14.0,6.0,-100.00,NW,305,8.0,15.0,69,-99.99,,,-99.99,,2013-01-26 15:33:00,
2013-01-26 10:43:00,15.0,6.0,-100.00,NW,305,6.0,13.0,67,-99.99,,,-99.99,,2013-01-26 15:43:00,
2013-01-26 10:52:00,15.0,6.0,-100.00,NW,305,6.0,13.0,67,-99.99,,,-99.99,,2013-01-26 15:52:00,
2013-01-26 11:03:00,15.0,5.0,-100.00,WNW,290,7.0,17.0,64,-99.99,,,-99.99,,2013-01-26 16:03:00,
2013-01-26 11:13:00,16.0,5.0,-100.00,NW,320,6.0,14.0,61,-99.99,,,-99.99,,2013-01-26 16:13:00,
2013-01-26 11:22:00,16.0,5.0,-100.00,NW,320,6.0,14.0,61,-99.99,,,-99.99,,2013-01-26 16:22:00,
2013-01-26 11:33:00,17.0,5.0,-100.00,NW,310,6.0,16.0,59,-99.99,,,-99.99,,2013-01-26 16:33:00,
2013-01-26 11:43:00,17.0,4.0,-100.00,NW,320,6.0,17.0,56,-99.99,,,-99.99,,2013-01-26 16:43:00,
2013-01-26 11:53:00,17.0,4.0,-100.00,NW,320,6.0,17.0,56,-99.99,,,-99.99,,2013-01-26 16:53:00,
2013-01-26 12:03:00,18.0,4.0,-100.00,NNW,340,5.0,12.0,55,-99.99,,,-99.99,,2013-01-26 17:03:00,
2013-01-26 12:13:00,18.0,4.0,-100.00,WNW,295,6.0,14.0,53,-99.99,,,-99.99,,2013-01-26 17:13:00,
2013-01-26 12:23:00,18.0,4.0,-100.00,WNW,295,6.0,14.0,53,-99.99,,,-99.99,,2013-01-26 17:23:00,
2013-01-26 12:33:00,19.0,4.0,-100.00,NW,315,5.0,16.0,51,-99.99,,,-99.99,,2013-01-26 17:33:00,
2013-01-26 12:42:00,19.0,3.0,-100.00,NW,310,9.0,18.0,49,-99.99,,,-99.99,,2013-01-26 17:42:00,
2013-01-26 12:52:00,19.0,3.0,-100.00,NW,310,9.0,18.0,49,-99.99,,,-99.99,,2013-01-26 17:52:00,
2013-01-26 13:03:00,20.0,2.0,-100.00,WNW,300,7.0,15.0,46,-99.99,,,-99.99,,2013-01-26 18:03:00,
2013-01-26 13:12:00,20.0,2.0,-100.00,WNW,285,6.0,16.0,45,-99.99,,,-99.99,,2013-01-26 18:12:00,
2013-01-26 13:22:00,20.0,2.0,-100.00,WNW,285,6.0,16.0,45,-99.99,,,-99.99,,2013-01-26 18:22:00,
2013-01-26 13:33:00,20.0,2.0,-100.00,NW,325,6.0,14.0,43,-99.99,,,-99.99,,2013-01-26 18:33:00,
2013-01-26 13:42:00,22.0,2.0,-100.00,NW,315,4.0,17.0,42,-99.99,,,-99.99,,2013-01-26 18:42:00,
2013-01-26 13:52:00,22.0,2.0,-100.00,NW,315,4.0,17.0,42,-99.99,,,-99.99,,2013-01-26 18:52:00,
2013-01-26 14:03:00,22.0,2.0,-100.00,WNW,300,7.0,14.0,41,-99.99,,,-99.99,,2013-01-26 19:03:00,
2013-01-26 14:12:00,21.0,1.0,-100.00,NW,305,8.0,19.0,41,-99.99,,,-99.99,,2013-01-26 19:12:00,
2013-01-26 14:22:00,21.0,1.0,-100.00,NW,305,8.0,19.0,41,-99.99,,,-99.99,,2013-01-26 19:22:00,
2013-01-26 14:33:00,22.0,2.0,-100.00,North,0,4.0,16.0,40,-99.99,,,-99.99,,2013-01-26 19:33:00,
2013-01-26 14:42:00,23.0,2.0,-100.00,NW,305,5.0,13.0,39,-99.99,,,-99.99,,2013-01-26 19:42:00,
2013-01-26 14:52:00,23.0,2.0,-100.00,NW,305,5.0,13.0,39,-99.99,,,-99.99,,2013-01-26 19:52:00,
2013-01-26 15:02:00,22.0,1.0,-100.00,NNW,335,6.0,11.0,39,-99.99,,,-99.99,,2013-01-26 20:02:00,
2013-01-26 15:12:00,22.0,1.0,-100.00,NW,305,10.0,22.0,39,-99.99,,,-99.99,,2013-01-26 20:12:00,
2013-01-26 15:22:00,22.0,1.0,-100.00,NW,305,10.0,22.0,39,-99.99,,,-99.99,,2013-01-26 20:22:00,
2013-01-26 15:32:00,23.0,1.0,-100.00,WNW,290,8.0,20.0,38,-99.99,,,-99.99,,2013-01-26 20:32:00,
2013-01-26 15:42:00,23.0,1.0,-100.00,WNW,285,11.0,24.0,38,-99.99,,,-99.99,,2013-01-26 20:42:00,
2013-01-26 15:52:00,23.0,1.0,-100.00,WNW,285,11.0,24.0,38,-99.99,,,-99.99,,2013-01-26 20:52:00,
2013-01-26 16:03:00,23.0,1.0,-100.00,North,0,9.0,19.0,38,-99.99,,,-99.99,,2013-01-26 21:03:00,
2013-01-26 16:12:00,23.0,1.0,-100.00,NW,305,5.0,15.0,38,-99.99,,,-99.99,,2013-01-26 21:12:00,
2013-01-26 16:23:00,23.0,1.0,-100.00,NW,305,5.0,15.0,38,-99.99,,,-99.99,,2013-01-26 21:23:00,
2013-01-26 16:32:00,23.0,1.0,-100.00,NW,310,7.0,18.0,38,-99.99,,,-99.99,,2013-01-26 21:32:00,
2013-01-26 16:43:00,23.0,1.0,-100.00,NW,310,5.0,14.0,38,-99.99,,,-99.99,,2013-01-26 21:43:00,
2013-01-26 16:52:00,23.0,1.0,-100.00,NW,310,5.0,14.0,38,-99.99,,,-99.99,,2013-01-26 21:52:00,
2013-01-26 17:02:00,22.0,1.0,-100.00,NW,305,7.0,21.0,38,-99.99,,,-99.99,,2013-01-26 22:02:00,
2013-01-26 17:12:00,22.0,0.0,-100.00,WNW,295,8.0,15.0,38,-99.99,,,-99.99,,2013-01-26 22:12:00,
2013-01-26 17:22:00,22.0,0.0,-100.00,WNW,295,8.0,15.0,38,-99.99,,,-99.99,,2013-01-26 22:22:00,
2013-01-26 17:32:00,21.0,0.0,-100.00,NW,320,4.0,15.0,39,-99.99,,,-99.99,,2013-01-26 22:32:00,
2013-01-26 17:42:00,21.0,0.0,-100.00,NNW,330,5.0,15.0,40,-99.99,,,-99.99,,2013-01-26 22:42:00,
2013-01-26 17:52:00,21.0,0.0,-100.00,NNW,330,5.0,15.0,40,-99.99,,,-99.99,,2013-01-26 22:52:00,
2013-01-26 18:02:00,20.0,0.0,-100.00,NNW,330,6.0,19.0,40,-99.99,,,-99.99,,2013-01-26 23:02:00,
2013-01-26 18:12:00,20.0,0.0,-100.00,WNW,295,5.0,13.0,40,-99.99,,,-99.99,,2013-01-26 23:12:00,
2013-01-26 18:22:00,20.0,0.0,-100.00,WNW,295,5.0,13.0,40,-99.99,,,-99.99,,2013-01-26 23:22:00,
2013-01-26 18:32:00,19.0,0.0,-100.00,NW,310,5.0,13.0,41,-99.99,,,-99.99,,2013-01-26 23:32:00,
2013-01-26 18:42:00,19.0,0.0,-100.00,NW,325,5.0,14.0,42,-99.99,,,-99.99,,2013-01-26 23:42:00,
2013-01-26 18:52:00,19.0,0.0,-100.00,NW,325,5.0,14.0,42,-99.99,,,-99.99,,2013-01-26 23:52:00,
2013-01-26 19:02:00,19.0,0.0,-100.00,WNW,285,4.0,13.0,43,-99.99,,,-99.99,,2013-01-27 00:02:00,
2013-01-26 19:12:00,18.0,0.0,-100.00,NW,320,4.0,9.0,43,-99.99,,,-99.99,,2013-01-27 00:12:00,
2013-01-26 19:22:00,18.0,0.0,-100.00,NW,320,4.0,9.0,43,-99.99,,,-99.99,,2013-01-27 00:22:00,
2013-01-26 19:32:00,18.0,0.0,-100.00,North,0,2.0,8.0,44,-99.99,,,-99.99,,2013-01-27 00:32:00,
2013-01-26 19:42:00,18.0,0.0,-100.00,North,0,2.0,9.0,44,-99.99,,,-99.99,,2013-01-27 00:42:00,
2013-01-26 19:51:00,18.0,0.0,-100.00,North,0,2.0,9.0,44,-99.99,,,-99.99,,2013-01-27 00:51:00,
2013-01-26 20:02:00,18.0,0.0,-100.00,WNW,300,3.0,14.0,45,-99.99,,,-99.99,,2013-01-27 01:02:00,
2013-01-26 20:11:00,18.0,0.0,-100.00,WNW,300,3.0,14.0,45,-99.99,,,-99.99,,2013-01-27 01:11:00,
2013-01-26 20:32:00,18.0,0.0,-100.00,NNW,345,3.0,13.0,45,-99.99,,,-99.99,,2013-01-27 01:32:00,
2013-01-26 20:42:00,17.0,0.0,-100.00,NNW,345,2.0,9.0,46,-99.99,,,-99.99,,2013-01-27 01:42:00,
2013-01-26 20:52:00,17.0,0.0,-100.00,NNW,345,2.0,9.0,46,-99.99,,,-99.99,,2013-01-27 01:52:00,
2013-01-26 21:02:00,17.0,0.0,-100.00,WNW,295,3.0,8.0,47,-99.99,,,-99.99,,2013-01-27 02:02:00,
2013-01-26 21:12:00,17.0,0.0,-100.00,NW,315,4.0,9.0,47,-99.99,,,-99.99,,2013-01-27 02:12:00,
2013-01-26 21:22:00,17.0,0.0,-100.00,NW,315,4.0,9.0,47,-99.99,,,-99.99,,2013-01-27 02:22:00,
2013-01-26 21:32:00,17.0,0.0,-100.00,NNW,345,5.0,10.0,48,-99.99,,,-99.99,,2013-01-27 02:32:00,
2013-01-26 21:42:00,16.0,0.0,-100.00,WNW,295,3.0,11.0,49,-99.99,,,-99.99,,2013-01-27 02:42:00,
2013-01-26 21:52:00,16.0,0.0,-100.00,WNW,295,3.0,11.0,49,-99.99,,,-99.99,,2013-01-27 02:52:00,
2013-01-26 22:02:00,16.0,0.0,-100.00,West,275,3.0,9.0,49,-99.99,,,-99.99,,2013-01-27 03:02:00,
2013-01-26 22:12:00,16.0,1.0,-100.00,NW,320,4.0,11.0,50,-99.99,,,-99.99,,2013-01-27 03:12:00,
2013-01-26 22:21:00,16.0,1.0,-100.00,NW,320,4.0,11.0,50,-99.99,,,-99.99,,2013-01-27 03:21:00,
2013-01-26 22:32:00,16.0,1.0,-100.00,NW,325,3.0,11.0,51,-99.99,,,-99.99,,2013-01-27 03:32:00,
2013-01-26 22:42:00,16.0,1.0,-100.00,NW,305,5.0,11.0,51,-99.99,,,-99.99,,2013-01-27 03:42:00,
2013-01-26 22:51:00,16.0,1.0,-100.00,NW,305,5.0,11.0,51,-99.99,,,-99.99,,2013-01-27 03:51:00,
2013-01-26 23:02:00,16.0,1.0,-100.00,WNW,295,2.0,9.0,52,-99.99,,,-99.99,,2013-01-27 04:02:00,
2013-01-26 23:12:00,15.0,1.0,-100.00,NW,305,4.0,10.0,53,-99.99,,,-99.99,,2013-01-27 04:12:00,
2013-01-26 23:22:00,15.0,1.0,-100.00,NW,305,4.0,10.0,53,-99.99,,,-99.99,,2013-01-27 04:22:00,
2013-01-26 23:32:00,15.0,2.0,-100.00,NW,315,3.0,10.0,54,-99.99,,,-99.99,,2013-01-27 04:32:00,
2013-01-26 23:42:00,15.0,2.0,-100.00,West,265,2.0,7.0,55,-99.99,,,-99.99,,2013-01-27 04:42:00,
2013-01-26 23:52:00,15.0,2.0,-100.00,West,265,2.0,7.0,55,-99.99,,,-99.99,,2013-01-27 04:52:00,